• In Romania
  • List of Countries
  • For 7 days
  • Water Temperature
  • Satellite Maps
  • Weather Map
  • Weather Widgets
  • user-avatar
    Login

    Hourly Weather La Rioja

    Today, 22 February, Wednesday

    Time Temperature Precipitation Wind Pressure Humidity
    00:00 +29°C° 0.2 mm 2 mps 715 mmHg 49%
    01:00 +29°C° 0.2 mm 2 mps 715 mmHg 50%
    02:00 +28°C° 0.2 mm 2 mps 715 mmHg 52%
    03:00 +28°C° 0.2 mm 2 mps 715 mmHg 53%
    04:00 +28°C° 0.2 mm 2 mps 715 mmHg 54%
    05:00 +27°C° 0.2 mm 2 mps 715 mmHg 55%
    06:00 +28°C° 0.1 mm 2 mps 715 mmHg 52%
    07:00 +29°C° 0.1 mm 2 mps 716 mmHg 49%
    08:00 +30°C° 0.1 mm 2 mps 716 mmHg 45%
    09:00 +32°C° 0.1 mm 2 mps 716 mmHg 42%
    10:00 +33°C° 0.1 mm 1 mps 716 mmHg 38%
    11:00 +35°C° 0.1 mm 1 mps 716 mmHg 34%
    12:00 +37°C° 0 mm 2 mps 715 mmHg 32%
    13:00 +37°C° 0 mm 2 mps 715 mmHg 31%
    14:00 +38°C° 0 mm 2 mps 714 mmHg 29%
    15:00 +38°C° 0.2 mm 2 mps 713 mmHg 30%
    16:00 +38°C° 0.2 mm 2 mps 713 mmHg 31%
    17:00 +38°C° 0.2 mm 3 mps 712 mmHg 32%
    18:00 +36°C° 0.7 mm 2 mps 712 mmHg 36%
    19:00 +34°C° 0.7 mm 2 mps 713 mmHg 41%
    20:00 +32°C° 0.7 mm 2 mps 713 mmHg 45%
    21:00 +31°C° 0.5 mm 2 mps 713 mmHg 47%
    22:00 +30°C° 0.5 mm 2 mps 714 mmHg 48%
    23:00 +29°C° 0.5 mm 2 mps 714 mmHg 49%

    Tomorrow, 23 February, Thursday

    Time Temperature Precipitation Wind Pressure Humidity
    00:00 +29°C° 0.5 mm 2 mps 714 mmHg 49%
    01:00 +29°C° 0.5 mm 2 mps 714 mmHg 48%
    02:00 +28°C° 0.5 mm 3 mps 714 mmHg 48%
    03:00 +28°C° 0.3 mm 2 mps 714 mmHg 48%
    04:00 +28°C° 0.3 mm 2 mps 713 mmHg 48%
    05:00 +27°C° 0.3 mm 2 mps 713 mmHg 48%
    06:00 +28°C° 0.1 mm 2 mps 714 mmHg 44%
    07:00 +29°C° 0.1 mm 2 mps 714 mmHg 41%
    08:00 +31°C° 0.1 mm 1 mps 715 mmHg 37%
    09:00 +32°C° 0.1 mm 1 mps 715 mmHg 35%
    10:00 +33°C° 0.1 mm 1 mps 715 mmHg 32%
    11:00 +35°C° 0.1 mm 1 mps 715 mmHg 29%
    12:00 +36°C° 0.1 mm 1 mps 714 mmHg 28%
    13:00 +36°C° 0.1 mm 1 mps 714 mmHg 27%
    14:00 +37°C° 0.1 mm 1 mps 713 mmHg 25%
    15:00 +38°C° 0.3 mm 2 mps 713 mmHg 26%
    16:00 +38°C° 0.3 mm 2 mps 712 mmHg 26%
    17:00 +38°C° 0.3 mm 2 mps 711 mmHg 26%
    18:00 +36°C° 0.3 mm 2 mps 712 mmHg 30%
    19:00 +34°C° 0.3 mm 3 mps 712 mmHg 34%
    20:00 +33°C° 0.3 mm 3 mps 712 mmHg 38%
    21:00 +31°C° 0.2 mm 2 mps 713 mmHg 40%
    22:00 +30°C° 0.2 mm 2 mps 713 mmHg 41%
    23:00 +30°C° 0.2 mm 2 mps 714 mmHg 42%

    Day after tomorrow, 24 February, Friday

    Time Temperature Precipitation Wind Pressure Humidity
    00:00 +29°C° 0.1 mm 2 mps 713 mmHg 43%
    01:00 +29°C° 0.1 mm 2 mps 713 mmHg 44%
    02:00 +28°C° 0.1 mm 2 mps 713 mmHg 45%
    03:00 +28°C° 0 mm 2 mps 713 mmHg 45%
    04:00 +27°C° 0 mm 2 mps 713 mmHg 46%
    05:00 +27°C° 0 mm 2 mps 712 mmHg 46%
    06:00 +28°C° 0 mm 2 mps 713 mmHg 43%
    07:00 +29°C° 0 mm 2 mps 714 mmHg 40%
    08:00 +31°C° 0 mm 1 mps 714 mmHg 37%
    09:00 +32°C° 0 mm 1 mps 714 mmHg 34%
    10:00 +35°C° 0 mm 2 mps 715 mmHg 31%
    11:00 +36°C° 0 mm 2 mps 715 mmHg 28%
    12:00 +37°C° 0 mm 2 mps 714 mmHg 27%
    13:00 +38°C° 0 mm 2 mps 713 mmHg 25%
    14:00 +39°C° 0 mm 2 mps 712 mmHg 24%
    15:00 +39°C° 0.3 mm 2 mps 712 mmHg 25%
    16:00 +39°C° 0.3 mm 3 mps 711 mmHg 25%
    17:00 +39°C° 0.3 mm 3 mps 711 mmHg 26%
    18:00 +37°C° 0.1 mm 3 mps 711 mmHg 30%
    19:00 +35°C° 0.1 mm 3 mps 711 mmHg 34%
    20:00 +33°C° 0.1 mm 3 mps 712 mmHg 38%
    21:00 +31°C° 0.3 mm 2 mps 712 mmHg 41%
    22:00 +30°C° 0.3 mm 2 mps 713 mmHg 44%
    23:00 +30°C° 0.3 mm 2 mps 713 mmHg 47%

    25 February, Saturday

    Time Temperature Precipitation Wind Pressure Humidity
    00:00 +29°C° 0.4 mm 2 mps 713 mmHg 47%
    01:00 +29°C° 0.4 mm 2 mps 713 mmHg 48%
    02:00 +28°C° 0.4 mm 2 mps 713 mmHg 48%
    03:00 +28°C° 0.3 mm 2 mps 713 mmHg 49%
    04:00 +27°C° 0.3 mm 2 mps 713 mmHg 49%
    05:00 +27°C° 0.3 mm 2 mps 713 mmHg 50%
    06:00 +28°C° 0.3 mm 2 mps 713 mmHg 47%
    07:00 +29°C° 0.3 mm 2 mps 714 mmHg 45%
    08:00 +30°C° 0.3 mm 2 mps 715 mmHg 42%
    09:00 +31°C° 0.1 mm 2 mps 715 mmHg 39%
    10:00 +33°C° 0.1 mm 1 mps 715 mmHg 36%
    11:00 +34°C° 0.1 mm 1 mps 715 mmHg 33%
    12:00 +35°C° 0.2 mm 1 mps 714 mmHg 32%
    13:00 +35°C° 0.2 mm 1 mps 714 mmHg 31%
    14:00 +37°C° 0.2 mm 2 mps 713 mmHg 31%
    15:00 +36°C° 0.2 mm 2 mps 713 mmHg 32%
    16:00 +36°C° 0.2 mm 2 mps 712 mmHg 33%
    17:00 +35°C° 0.2 mm 3 mps 712 mmHg 35%
    18:00 +34°C° 0.1 mm 3 mps 712 mmHg 38%
    19:00 +33°C° 0.1 mm 3 mps 712 mmHg 42%
    20:00 +30°C° 0.1 mm 3 mps 713 mmHg 46%
    21:00 +30°C° 0.1 mm 2 mps 713 mmHg 47%
    22:00 +29°C° 0.1 mm 2 mps 713 mmHg 49%
    23:00 +29°C° 0.1 mm 2 mps 713 mmHg 51%

    26 February, Sunday

    Time Temperature Precipitation Wind Pressure Humidity
    00:00 +28°C° 0.1 mm 2 mps 713 mmHg 51%
    01:00 +28°C° 0.1 mm 2 mps 713 mmHg 51%
    02:00 +28°C° 0.1 mm 2 mps 712 mmHg 52%
    03:00 +27°C° 0 mm 2 mps 712 mmHg 53%
    04:00 +27°C° 0 mm 2 mps 712 mmHg 54%
    05:00 +27°C° 0 mm 2 mps 712 mmHg 55%
    06:00 +28°C° 0.2 mm 1 mps 712 mmHg 52%
    07:00 +28°C° 0.2 mm 1 mps 713 mmHg 50%
    08:00 +29°C° 0.2 mm 1 mps 713 mmHg 47%
    09:00 +31°C° 0.3 mm 1 mps 713 mmHg 44%
    10:00 +32°C° 0.3 mm 1 mps 713 mmHg 41%
    11:00 +34°C° 0.3 mm 2 mps 713 mmHg 38%
    12:00 +35°C° 0.3 mm 2 mps 712 mmHg 36%
    13:00 +36°C° 0.3 mm 2 mps 711 mmHg 33%
    14:00 +38°C° 0.3 mm 3 mps 710 mmHg 31%
    15:00 +38°C° 0.1 mm 3 mps 710 mmHg 30%
    16:00 +38°C° 0.1 mm 4 mps 710 mmHg 30%
    17:00 +39°C° 0.1 mm 5 mps 709 mmHg 30%
    18:00 +36°C° 0.3 mm 4 mps 710 mmHg 36%
    19:00 +34°C° 0.3 mm 3 mps 710 mmHg 42%
    20:00 +31°C° 0.3 mm 3 mps 711 mmHg 48%
    21:00 +30°C° 0.1 mm 2 mps 711 mmHg 51%
    22:00 +30°C° 0.1 mm 2 mps 712 mmHg 53%
    23:00 +29°C° 0.1 mm 1 mps 712 mmHg 56%

    27 February, Monday

    Time Temperature Precipitation Wind Pressure Humidity
    00:00 +29°C° 0 mm 1 mps 712 mmHg 57%
    01:00 +28°C° 0 mm 1 mps 712 mmHg 57%
    02:00 +28°C° 0 mm 1 mps 711 mmHg 57%
    03:00 +28°C° 0.1 mm 1 mps 711 mmHg 57%
    04:00 +27°C° 0.1 mm 1 mps 712 mmHg 57%
    05:00 +27°C° 0.1 mm 1 mps 712 mmHg 57%
    06:00 +28°C° 0.1 mm 1 mps 712 mmHg 53%
    07:00 +29°C° 0.1 mm 1 mps 713 mmHg 48%
    08:00 +31°C° 0.1 mm 1 mps 713 mmHg 44%
    09:00 +32°C° 0.1 mm 1 mps 713 mmHg 41%
    10:00 +33°C° 0.1 mm 1 mps 713 mmHg 38%
    11:00 +34°C° 0.1 mm 1 mps 713 mmHg 35%
    12:00 +35°C° 0.1 mm 1 mps 713 mmHg 34%
    13:00 +37°C° 0.1 mm 2 mps 712 mmHg 33%
    14:00 +38°C° 0.1 mm 2 mps 712 mmHg 31%
    15:00 +38°C° 0.8 mm 2 mps 711 mmHg 33%
    16:00 +37°C° 0.8 mm 2 mps 711 mmHg 34%
    17:00 +37°C° 0.8 mm 2 mps 711 mmHg 36%
    18:00 +36°C° 1.3 mm 2 mps 711 mmHg 41%
    19:00 +34°C° 1.3 mm 2 mps 711 mmHg 45%
    20:00 +32°C° 1.3 mm 2 mps 711 mmHg 50%
    21:00 +31°C° 1.1 mm 2 mps 712 mmHg 52%
    22:00 +30°C° 1.1 mm 2 mps 712 mmHg 55%
    23:00 +29°C° 1.1 mm 2 mps 712 mmHg 57%
    Show more